Dumas, Arkansas, United States (71639)
Lat: 33.89N, Lon: 91.49W
Wx Zone: ARZ065
Local Info
Past Weather Observations for Sunday, September 25, 2016

NOTE: This archive is for the closest National Weather Service station to Dumas. Information may differ from the station used for current weather conditions.

Click here for Long-term Archive

Time Weather Temperature Dewpoint Humidity Pressure Winds Precip Visibility
23:53
Overcast
75°F / 24°C 72°F / 22°C 89% 30.01 in
(1016 mb)
Calm - 10SM
22:53
Partly Cloudy
75°F / 24°C 70°F / 21°C 83% 30.04 in
(1017 mb)
SSW 3.5 mph
(SSW 6 kph)
- 10SM
21:53
Clear
75°F / 24°C 72°F / 22°C 89% 30.04 in
(1017 mb)
Calm - 10SM
20:53
Partly Cloudy
77°F / 25°C 72°F / 22°C 83% 30.04 in
(1017 mb)
Calm - 10SM
19:53
Partly Cloudy
79°F / 26°C 70°F / 21°C 74% 30.04 in
(1017 mb)
NNE 3.5 mph
(NNE 6 kph)
0.00 in
(0.00 mm)
10SM
18:53
Overcast
Light Rain
79°F / 26°C 73°F / 23°C 84% 30.01 in
(1016 mb)
Calm 0.01 in
(0.25 mm)
10SM
17:53
Mostly Cloudy
84°F / 29°C 73°F / 23°C 70% 29.98 in
(1015 mb)
NE 4.6 mph
(NE 7 kph)
- 10SM
16:53
Clear
88°F / 31°C 70°F / 21°C 55% 29.98 in
(1015 mb)
W 3.5 mph
(W 6 kph)
- 10SM
15:53
Partly Cloudy
90°F / 32°C 70°F / 21°C 52% 29.98 in
(1015 mb)
SSW 5.8 mph
(SSW 9 kph)
- 10SM
14:53
Partly Cloudy
93°F / 34°C 68°F / 20°C 44% 29.98 in
(1015 mb)
Variable 4.6 mph
(Variable 7 kph)
- 10SM
13:53
Clear
93°F / 34°C 66°F / 19°C 41% 29.98 in
(1015 mb)
S 4.6 mph
(S 7 kph)
- 10SM
12:53
Mostly Cloudy
93°F / 34°C 70°F / 21°C 47% 30.01 in
(1016 mb)
NE 4.6 mph
(NE 7 kph)
- 10SM
11:53
Clear
91°F / 33°C 70°F / 21°C 49% 30.04 in
(1017 mb)
Variable 3.5 mph
(Variable 6 kph)
- 10SM
10:53
Partly Cloudy
90°F / 32°C 72°F / 22°C 55% 30.06 in
(1018 mb)
Variable 3.5 mph
(Variable 6 kph)
- 10SM
09:53
Clear
88°F / 31°C 72°F / 22°C 59% 30.06 in
(1018 mb)
W 6.9 mph
(W 11 kph)
- 10SM
08:53
Clear
81°F / 27°C 72°F / 22°C 74% 30.06 in
(1018 mb)
NW 4.6 mph
(NW 7 kph)
- 10SM
07:53
Clear
79°F / 26°C 72°F / 22°C 79% 30.06 in
(1018 mb)
WNW 5.8 mph
(WNW 9 kph)
- 10SM
06:53
Clear
73°F / 23°C 70°F / 21°C 89% 30.06 in
(1018 mb)
W 3.5 mph
(W 6 kph)
- 9SM
05:53
Clear
72°F / 22°C 70°F / 21°C 94% 30.04 in
(1017 mb)
Calm - 10SM
04:53
Clear
72°F / 22°C 70°F / 21°C 94% 30.04 in
(1017 mb)
Calm - 7SM
03:53
Clear
72°F / 22°C 70°F / 21°C 94% 30.04 in
(1017 mb)
Calm - 8SM
02:53
Clear
73°F / 23°C 70°F / 21°C 89% 30.04 in
(1017 mb)
Calm - 10SM
01:53
Clear
72°F / 22°C 70°F / 21°C 94% 30.04 in
(1017 mb)
W 3.5 mph
(W 6 kph)
- 10SM
00:53
Clear
73°F / 23°C 70°F / 21°C 89% 30.04 in
(1017 mb)
Calm - 10SM
Time Weather Temperature Dewpoint Humidity Pressure Winds Precip Visibility


Weather for websites

WeatherForYou.com, LLC is not responsible for any damages or problems caused by this service. Current weather conditions are obtained from the closest station including government and personal stations which may have varying degrees of accuracy. Weather forecasts are derived from the NOAA NDFD. Like all things, this site belongs to Jesus Christ... He just trusts us to maintain it. If you have any questions or comments email webmaster@weatherforyou.com

Copyright © 2016, WeatherForYou.com LLC. All rights reserved.